SV1QT-2 Athens GR current weather conditions

sailwx.info

Wind from 213 at 4 knots gusting 8

Air temperature 13.3° C
Dewpoint 9.8° C

Last reported at 2018-Jan-21 17:38 UTC.
Time now 2018-Jan-22 16:30 UTC

Location: N 37°57' E 023°45'.
View on Google Maps.

See reports from other nearby stations

  
Tides and Currents Weather Stations Pressure Air Temp Water Temp Dewpoint Dewpoint Depression Visibility Wind Speed Wind Dir Waves Ship Positions
date/time (UTC)wind fromknots sea level pressurealtimeterstation pressurevisibilityair tempwater tempwave heightnotes
2018-Jan-21 17:38 213 4 gusting 8 13.3
2018-Jan-21 17:35 216 13.3
2018-Jan-21 17:30 218 6 gusting 8 13.3
2018-Jan-21 17:25 205 13.3
2018-Jan-21 17:20 199 5 gusting 5 13.3
2018-Jan-21 17:15 193 5 gusting 5 13.3
2018-Jan-21 17:10 187 1 gusting 6 13.3
2018-Jan-21 17:05 186 2 gusting 6 13.3
2018-Jan-21 17:00 179 6 gusting 6 13.3
2018-Jan-21 16:55 181 1 gusting 6 13.3
2018-Jan-21 16:50 181 6 gusting 6 13.3
2018-Jan-21 16:45 173 1 gusting 1 13.3
2018-Jan-21 16:40 173 1 gusting 1 13.3
2018-Jan-21 16:35 159 1 gusting 1 13.3
2018-Jan-21 16:30 157 13.3
2018-Jan-21 16:25 169 1 gusting 1 13.3
2018-Jan-21 16:20 181 13.3
2018-Jan-21 16:15 211 13.3
2018-Jan-21 16:10 217 1 gusting 3 13.3
2018-Jan-21 16:05 203 0 gusting 8 13.3
2018-Jan-21 16:00 208 13.3
2018-Jan-21 15:55 200 8 gusting 8 13.3
2018-Jan-21 15:50 197 5 gusting 5 13.9
2018-Jan-21 15:45 199 3 gusting 4 13.9
2018-Jan-21 15:40 168 4 gusting 4 13.9
2018-Jan-21 15:35 13.9
2018-Jan-21 15:30 243 14.4
2018-Jan-21 15:25 291 14.4
2018-Jan-21 15:20 314 7 gusting 7 14.4
2018-Jan-21 15:15 165 1 gusting 1 14.4
2018-Jan-21 15:10 176 14.4
2018-Jan-21 15:05 165 1 gusting 1 15.0
2018-Jan-21 15:00 152 0 gusting 5 15.0
2018-Jan-21 14:55 156 15.0
2018-Jan-21 14:50 225 15.0
2018-Jan-21 14:45 225 15.0
2018-Jan-21 14:40 225 5 gusting 6 15.0
2018-Jan-21 14:35 216 15.0
2018-Jan-21 14:30 212 6 gusting 6 15.0
2018-Jan-21 14:25 181 15.6
2018-Jan-21 14:20 181 15.6
2018-Jan-21 14:15 181 6 gusting 6 15.6
2018-Jan-21 14:10 172 6 gusting 6 15.6
2018-Jan-21 14:05 170 2 gusting 2 15.6
2018-Jan-21 14:00 198 2 gusting 2 16.1
2018-Jan-21 13:55 235 2 gusting 2 16.1
2018-Jan-21 13:50 221 1 gusting 2 16.1
2018-Jan-21 13:44 222 0 gusting 2 16.1
2018-Jan-21 13:40 210 2 gusting 3 16.1
2018-Jan-21 13:34 196 1 gusting 10 16.1
2018-Jan-21 13:30 187 3 gusting 10 16.7
2018-Jan-21 13:25 176 3 gusting 10 16.1
2018-Jan-21 13:20 181 7 gusting 7 16.1
2018-Jan-21 13:15 215 16.1
2018-Jan-21 13:10 213 2 gusting 5 16.1
2018-Jan-21 13:05 218 1 gusting 5 16.1
2018-Jan-21 13:00 104 5 gusting 5 16.7
2018-Jan-21 12:53 090 2 gusting 2 16.1
2018-Jan-21 12:50 090 2 gusting 2 16.1
2018-Jan-21 12:45 170 2 gusting 7 16.7
2018-Jan-21 12:40 196 16.7
2018-Jan-21 12:35 216 4 gusting 4 16.7
2018-Jan-21 12:30 241 1 gusting 4 16.7
2018-Jan-21 12:24 224 4 gusting 4 16.7
2018-Jan-21 12:20 165 2 gusting 3 16.7
2018-Jan-21 12:15 203 2 gusting 8 16.7
2018-Jan-21 12:10 218 3 gusting 8 16.1
2018-Jan-21 12:05 229 8 gusting 8 16.1
2018-Jan-21 12:00 254 7 gusting 7 16.7
2018-Jan-21 11:55 231 3 gusting 5 16.7
2018-Jan-21 11:50 209 3 gusting 7 16.7
2018-Jan-21 11:45 189 1 gusting 7 16.7
2018-Jan-21 11:40 211 7 gusting 7 17.2
2018-Jan-21 11:35 217 4 gusting 7 17.2
2018-Jan-21 11:30 194 7 gusting 7 17.2
2018-Jan-21 11:25 209 17.2
2018-Jan-21 11:19 207 1 gusting 3 17.2
2018-Jan-21 11:15 201 3 gusting 6 16.7
2018-Jan-21 11:10 207 3 gusting 6 16.7
2018-Jan-21 11:05 202 6 gusting 6 17.2
2018-Jan-21 11:00 136 1 gusting 3 17.2
2018-Jan-21 10:55 184 17.2
2018-Jan-21 10:50 199 2 gusting 9 17.2
2018-Jan-21 10:45 190 9 gusting 9 17.2
2018-Jan-21 10:40 208 5 gusting 6 17.2
2018-Jan-21 10:35 226 6 gusting 6 17.2
2018-Jan-21 10:30 211 2 gusting 2 17.2
2018-Jan-21 10:25 181 0 gusting 6 16.7
2018-Jan-21 10:19 176 2 gusting 6 16.7
2018-Jan-21 10:15 191 6 gusting 12 17.2
2018-Jan-21 10:10 215 6 gusting 12 17.2
2018-Jan-21 10:05 222 12 gusting 12 17.2
2018-Jan-21 10:00 148 5 gusting 6 17.2
2018-Jan-21 09:55 114 2 gusting 6 17.2
2018-Jan-21 09:50 145 6 gusting 6 17.2
2018-Jan-21 09:45 156 1 gusting 6 17.2
2018-Jan-21 09:40 164 5 gusting 6 17.2
2018-Jan-21 09:35 216 5 gusting 9 17.2
2018-Jan-21 09:29 225 6 gusting 9 16.7
2018-Jan-21 09:24 225 16.1
2018-Jan-21 09:19 225 4 gusting 6 15.0
2018-Jan-21 09:15 220 4 gusting 6 15.0
2018-Jan-21 09:10 203 3 gusting 6 15.0
2018-Jan-21 09:05 215 15.0
2018-Jan-21 09:00 216 6 gusting 6 15.0
2018-Jan-21 08:55 201 2 gusting 6 14.4
2018-Jan-21 08:50 203 2 gusting 2 13.9
2018-Jan-21 08:45 215 2 gusting 6 13.9
2018-Jan-21 08:40 224 2 gusting 6 13.9
2018-Jan-21 08:35 13.3
2018-Jan-21 08:30 181 13.9
2018-Jan-21 08:25 196 13.3
2018-Jan-21 08:20 195 4 gusting 5 13.3
2018-Jan-21 08:15 213 2 gusting 6 13.3
2018-Jan-21 08:10 227 5 gusting 6 13.3
2018-Jan-21 08:05 225 3 gusting 3 13.3
2018-Jan-21 08:00 231 13.9
2018-Jan-21 07:55 222 13.9
2018-Jan-21 07:50 220 2 gusting 3 13.9
2018-Jan-21 07:45 227 3 gusting 3 13.9
2018-Jan-21 07:40 215 0 gusting 3 14.4
2018-Jan-21 07:35 206 3 gusting 3 14.4
2018-Jan-21 07:29 217 3 gusting 6 14.4
2018-Jan-21 07:25 223 3 gusting 6 14.4
2018-Jan-21 07:20 210 6 gusting 6 14.4
2018-Jan-21 07:15 13.9
2018-Jan-21 07:10 13.9